STARLINK-32185, 60341

Orbit data source: Space-Track

STARLINK-32185, 60341 is a payload satellite owned by SpaceX/Seattle (US) in LEO that was launched on Fri, 02 Aug 2024 UTC via an FALCON 9 launch vehicle from the Air Force Eastern Test Range (AFETR). Payload-class satellites include a variety of spacecraft equipped with specific instruments for various scientific and technological missions. These include communications satellites like Starlink; space stations such as the ISS; scientific satellites like the Hubble; Earth observation satellites from companies like Planet Labs, Umbra, and HawkEye 360; GPS; miniature CubeSats for education and research; and military/defense satellites.

Loading next visibility...
Identifier
60341, 2024-136N
Orbit
LEO
Country
Flag of USUS
Related business
Manufacturer
SpaceX/Seattle
Mission
Operational Commercial Communications
Bus & Motor
STARLINK V2M, Unknown motor
Mass
730 kg wet, ~700 kg dry
Launch date (UTC)
2024-08-02 (1 year ago)
Launch vehicle
FALCON 9
Launch site
Air Force Eastern Test Range (AFETR)
Object type
Payload
Rocket body
Debris
Shape & HBR
Box + 2 Pan, 17.7 m
Radar Cross Section
33.884 m², Large (>1 m²)

Expand to show TLE details & history
Last TLE update: 10 hours ago

TLE from 10 hours ago
0 STARLINK-32185
1 60341U 24136N   25309.25132038 -.00001526  00000-0 -39419-4 0  9999
2 60341  53.1611 293.5853 0001183  77.2933 282.8200 15.30180571 70619
Epoch: 2025-11-05T06:01Z
TLE epoch observation values (Epoch: 2025-11-05T06:01:54.080Z)
Latitude
-0.00004°
Longitude
158.38327°
Altitude
475.993 km
Speed
7.629 km/s
True Right ascension
19h 34m 20s
True Declination
0° 00' 00"
Sunlit
Object was in daylight at epoch
Visualization orbit readout
Latitude
Unknown
Longitude
Unknown
Altitude
Unknown
Speed
Unknown
Apparent Right ascension
Unknown
Apparent Declination
Unknown
Sunlit
N/A
Visualization observer readout
Local Sidereal Time
12:28:50
Azimuth
Unknown
Elevation
Unknown
Doppler factor
Unknown
Orbital elements
Apogee altitude
476.34 km
Perigee altitude
474.719 km
Semi-major axis
6,853.666 km
Eccentricity
0.00012
Inclination
53.1611°
RAAN
293.5853°
Arg. of periapsis
77.2933°
True anomaly
282.80678°
Mean anomaly
282.82°
Eccentric anomaly
282.81339°
Mean motion
3.82524 °/min
Orbital period
94.11 mins
BSTAR
-0.000039419
Loading maneuver chart data...
Computing Atmospheric mass density...
Loading historical data...
Loading historical data...
Loading historical data...
Loading historical data...
Loading historical data...
Loading historical data...
Loading historical data...

Documentation

Showing up to 5 results
|